Location: Brantley
(31.5822°N, 86.2569°W)
Time: 14:20:45
(UTC+00:00)

Courier 1B - Pass Details

Date: 18 February 2026
Orbit: 962 x 1208 km, 28.3° (Epoch: 11 March)

Event Time Altitude Azimuth Distance (km) Brightness Sun altitude
Rises 04:49:37 0° 272° (W) 4,033 - -64.4°
Reaches altitude 10° 04:52:27 10° 269° (W) 3,095 - -64.8°
Maximum altitude 05:00:03 60° 192° (SSW) 1,351 - -65.9°
Drops below altitude 10° 05:07:45 10° 114° (ESE) 3,134 - -66.8°
Sets 05:10:37 0° 111° (ESE) 4,086 - -67.1°
